Regional Weather Roundup
Issued by NWS Bismarck, ND

Home | Current Version | Previous Version | Text Only | Print | Product List | Glossary On
Versions: 1 2 3 4 5 6 7 8 9 10 11 12 13 14 15 16 17 18 19 20 21 22 23 24 25 26 27 28 29 30 31 32 33 34 35 36 37 38 39 40 41 42 43 44 45 46 47 48 49 50
324
ASUS43 KBIS 201710
RWRBIS

NWR BROADCAST TEXT
NATIONAL WEATHER SERVICE BISMARCK ND
1100 AM CST SAT JAN 20 2018

NOTE: "FAIR" INDICATES FEW OR NO CLOUDS BELOW 12,000 FEET WITH NO
SIGNIFICANT WEATHER AND/OR OBSTRUCTIONS TO VISIBILITY.


CITY           SKY/WX    TMP DP  RH WIND       PRES   REMARKS
WILLISTON      FAIR      29  20  69 SW17      29.84R WCI  17
MINOT          FAIR      33  22  63 SW17      29.79R
MINOT AFB      SUNNY     31  23  71 W13       29.78R
BISMARCK       FAIR      36  30  79 W8        29.88R
DICKINSON      FAIR      34  24  67 W12       29.85R
GARRISON         N/A     34  27  75 W10       29.82R
HETTINGER ARPT PTSUNNY   35  29  78 W10       29.90R
JAMESTOWN      FAIR      37  30  75 W13       29.83R
CARRINGTON     FAIR      34  30  86 W12       29.84R
HAZEN            N/A     34  28  80 SW9       29.87R
LINTON           N/A     37  32  81 W7        29.90R
MANDAN         FAIR      36  28  75 W13       29.87R
OAKES            N/A     36  34  93 SW5       29.87R
RUGBY          FAIR      25  23  93 W9        29.79R WCI  15
STANLEY        FAIR      28  23  80 W12       29.82R WCI  18
TIOGA          FAIR      25  21  86 W10       29.82R WCI  15
WATFORD CITY   FAIR      32  21  64 W8G14     29.85R
$$

CITY           SKY/WX    TMP DP  RH WIND       PRES   REMARKS
GRAND FORKS    PTSUNNY   32  26  78 W5        29.82R
GRAND FORKS AF FAIR      34  25  70 W7        29.81R
DEVILS LAKE    FAIR      30  25  81 W10       29.81R
FARGO          FAIR      34  29  82 SW9       29.85R
CANDO          FAIR      28  28 100 W9        29.80R WCI  20
CAVALIER         N/A     28  27  93 CALM      29.80S
GRAFTON        FAIR      28  27  93 SW6       29.83R
GWINNER          N/A     36  32  87 SW10      29.86S
LANGDON        FAIR      21  21 100 SW6       29.76F WCI  14
ROLLA          FAIR      28  25  86 SW12      29.75R WCI  18
WALHALLA       FAIR      28  28 100 SW5       29.79R
$$

CITY           SKY/WX    TMP DP  RH WIND       PRES   REMARKS
ABERDEEN       CLOUDY    40  33  76 CALM      29.88S
MOBRIDGE       CLOUDY    41  34  76 CALM      29.87R
BUFFALO          N/A     35  29  78 W7        29.84R
RAPID CITY     CLOUDY    36  30  79 N6        29.92R
GLASGOW        SUNNY     19  14  81 S6        29.87R WCI  11
SIDNEY         SUNNY     34  22  61 W18       29.86R
WOLF POINT     SUNNY     21  13  71 W9        29.88R WCI  11
GLENDIVE       MOSUNNY   29  22  75 W13       29.89R WCI  19
MILES CITY     MOSUNNY   28  21  75 W7        29.93R
BAKER          MOSUNNY   31  26  82 W9        29.90R
$$

CITY           SKY/WX    TMP DP  RH WIND       PRES   REMARKS
BILLINGS       PTSUNNY   33  20  58 W12       29.93R
GREAT FALLS    SUNNY     32  18  56 SW18      29.87R
REGINA         MOSUNNY   23  19  86 SW8       29.75R WCI  14
ESTEVAN        MOSUNNY   23  18  80 SW12      29.78R WCI  12
$$





USA.gov is the U.S. government's official web portal to all federal, state and local government web resources and services.